Location: Greenwich
(51.4790°N, 0.0090°E)
Time: 04:53:18
(UTC+00:00)

Explorer 11/Cluster Stage 4 - Visible Passes

Search period start: 15 December 2025 00:00
Search period end: 25 December 2025 00:00
Orbit: 463 x 1181 km, 28.8° (Epoch: 14 December)

Date Brightness Start Highest point End Pass type
(mag) Time Alt. Az. Time Alt. Az. Time Alt. Az.
16 Dec 9.4 18:42:04 10° S 18:42:26 10° S 18:42:49 10° S visible
17 Dec 9.5 18:17:04 10° S 18:18:32 11° S 18:19:59 10° SSE visible
18 Dec 9.5 17:52:41 10° S 17:54:36 11° S 17:56:31 10° SSE visible
19 Dec 9.6 17:28:29 10° SSW 17:30:40 11° S 17:32:50 10° SSE visible
20 Dec 9.6 17:04:25 10° SSW 17:06:42 11° S 17:09:01 10° SSE visible
20 Dec 9.7 18:52:48 10° SSW 18:53:13 10° SSW 18:53:38 10° S visible
21 Dec 9.7 16:40:28 10° SSW 16:42:45 11° S 16:45:03 10° SSE visible
21 Dec 9.8 18:28:26 10° SSW 18:29:16 10° SSW 18:30:07 10° S visible
22 Dec 9.8 18:04:28 10° SSW 18:05:19 10° S 18:06:09 10° S visible
23 Dec 9.9 17:40:54 10° SSW 17:41:21 10° S 17:41:47 10° S visible
